#timestamp,LO_Frequency,Hit,StdDev 
1511301615.1,286046998.9,N
1511301616.0,286046998.9,N
1511301635.8,286046997.6,N
1511301655.7,286046994.9,N
1511301675.5,286046995.1,N
1511301695.3,286047002.0,N
1511301715.1,286047002.0,N
1511301735.9,286047001.4,N
1511301755.7,286047012.3,N
1511301775.5,286047012.2,N
1511301795.4,286047014.0,N
1511301815.2,286047021.6,Y
1511301835.0,286047021.5,P
1511301835.9,286047021.5,N
1511301855.8,286047025.6,N
1511301875.6,286047026.2,N
1511301895.4,286047023.9,N
1511301915.3,286047024.3,N
1511301935.1,286047030.1,Y
1511301955.8,286047026.4,P
1511301975.7,286047032.4,P
1511301995.5,286047034.2,P
1511302015.3,286047032.4,Y
1511302035.2,286047006.0,P
1511302055.0,286047006.7,N
1511302055.9,286047006.7,N
1511302075.7,286047009.0,N
1511302095.6,286047010.2,N
1511302115.4,286047013.8,N
1511302135.2,286047011.9,N
1511302155.1,286047008.1,N
1511302156.0,286047008.1,N
1511302175.8,286047009.7,N
1511302195.6,286047009.5,N
1511302215.5,286047009.6,N
1511302235.3,286047015.2,N
1511302255.1,286047016.8,Y
1511302275.9,286047002.2,P
1511302295.7,286046999.7,N
1511302315.5,286046997.5,N
1511302335.3,286046994.3,N
1511302355.2,286046991.1,N
1511302375.0,286046987.6,N
1511302375.9,286046987.6,N
1511302395.7,286046986.5,N
1511302415.6,286046986.3,N
1511302435.4,286046991.3,N
1511302455.2,286046991.7,N
1511302475.1,286046991.0,N
1511302476.0,286046991.0,N
1511302495.8,286046990.4,N
1511302515.6,286046989.0,N
1511302535.5,286046984.2,N
1511302555.3,286046989.1,N
1511302575.1,286046989.9,N
1511302595.9,286046989.0,N
1511302615.7,286046987.4,N
1511302635.5,286046986.0,N
1511302655.3,286046989.2,N
1511302675.2,286046985.9,N
1511302695.0,286046990.7,N
1511302695.9,286046990.7,N
1511302715.7,286046994.9,N
1511302735.6,286046993.5,N
1511302755.4,286046992.2,N
1511302775.2,286046991.5,N
1511302795.1,286046985.6,N
1511302796.0,286046985.6,Y
1511302815.8,286046995.9,P
1511302835.6,286046987.1,P
1511302855.5,286046989.4,N
1511302875.3,286046987.5,Y
1511302895.1,286047000.5,P
1511302915.9,286046996.9,N
1511302935.7,286046996.2,N
1511302955.5,286047002.5,N
1511302975.4,286047009.0,N
1511302995.2,286047002.6,N
1511303015.0,286047002.5,N
1511303015.9,286047002.5,N
1511303035.8,286047004.5,N
1511303055.6,286047006.5,N
1511303075.4,286047008.4,N
1511303095.3,286047007.5,N
1511303115.1,286047010.8,N
1511303116.0,286047010.8,N
1511303135.8,286047013.7,N
1511303155.6,286047012.7,N
1511303175.5,286047013.7,N
1511303195.3,286047009.3,N
1511303215.1,286047008.8,N
1511303235.9,286047014.8,N
1511303255.7,286047013.6,N
1511303275.5,286047020.9,Y
1511303295.4,286047014.2,P
1511303315.2,286047021.5,P
1511303335.0,286047021.0,P
1511303335.9,286047021.0,Y
1511303355.8,286047013.8,P
1511303375.6,286047017.5,P
1511303395.4,286047012.8,P
1511303415.3,286047015.8,Y
1511303435.1,286047003.7,P
1511303455.8,286046993.4,N
1511303475.7,286046990.5,N
1511303495.5,286046989.7,N
1511303515.3,286046986.0,N
1511303535.2,286046988.6,N
1511303555.9,286046986.0,N
1511303575.7,286046986.7,N
1511303595.6,286046981.8,N
1511303615.4,286046983.8,N
1511303635.2,286046984.3,N
1511303655.0,286046993.2,N
1511303656.0,286046993.2,N
1511303675.8,286046985.5,N
1511303695.6,286046990.8,N
1511303715.4,286046995.9,N
1511303735.3,286047000.6,N
1511303755.1,286046994.2,N
1511303775.8,286046989.3,N
1511303795.7,286046992.6,N
1511303815.5,286046988.8,N
1511303835.3,286046995.7,N
1511303855.2,286046995.3,N
1511303875.9,286046996.1,N
1511303895.7,286046997.7,N
1511303915.6,286046999.6,N
1511303935.4,286046996.7,N
1511303955.2,286046994.9,N
1511303975.0,286046994.2,N
1511303975.9,286046994.2,N
1511303995.8,286046991.4,N
1511304015.6,286046987.9,N
1511304035.4,286046989.1,N
1511304055.3,286046990.5,N
1511304075.1,286046995.5,N
1511304095.8,286046993.8,N
1511304115.7,286046996.1,N
1511304135.5,286046992.2,N
1511304155.3,286046994.4,N
1511304175.2,286046992.2,N
1511304195.9,286046997.0,N
1511304215.7,286046993.5,N
1511304235.6,286046987.3,Y
1511304255.4,286046994.9,P
1511304275.2,286047000.0,N
1511304295.1,286047000.0,N
1511304296.0,286047000.0,N
1511304315.8,286046998.1,N
1511304335.6,286046998.8,N
1511304355.4,286046996.5,N
1511304375.3,286046994.7,N
1511304395.1,286046991.5,Y
1511304415.9,286046992.7,P
1511304435.7,286046991.1,P
1511304455.5,286046992.6,N
1511304475.3,286046999.6,N
1511304495.2,286046995.2,N
1511304515.0,286046994.7,N
1511304515.9,286046994.7,N
1511304535.8,286046991.2,Y
1511304555.6,286046990.9,P
1511304575.4,286046994.9,N
1511304595.2,286046990.7,P
1511304615.1,286046993.3,Y
1511304616.0,286046993.3,P
1511304635.8,286047004.2,P
1511304655.6,286047002.6,N
1511304675.5,286046999.9,N
1511304695.3,286046998.2,N
1511304715.1,286046998.0,N
1511304735.9,286046999.1,N
1511304755.7,286046995.9,N
1511304775.5,286046999.1,N
1511304795.4,286047003.8,N
1511304815.2,286046996.4,N
1511304835.0,286046989.9,N
1511304835.9,286046989.9,N
1511304855.8,286046982.5,Y
1511304875.6,286046994.2,P
1511304895.4,286046992.3,P
1511304915.3,286046993.9,N
1511304935.1,286046990.9,Y
1511304936.0,286046990.9,P
1511304955.8,286046989.6,P
1511304975.7,286046986.6,P
1511304995.5,286046982.4,Y
1511305015.3,286046993.0,P
1511305035.2,286046992.6,P
1511305055.9,286046990.7,P
1511305075.7,286046988.4,Y
1511305095.6,286046992.1,P
1511305115.4,286046999.3,P
1511305135.2,286047001.1,N
1511305155.1,286047004.3,N
1511305156.0,286047004.3,N
1511305175.8,286047005.1,N
1511305195.6,286047012.0,N
